STARLINK-32867, 62855

Orbit data source: Space-Track

STARLINK-32867, 62855 is a payload satellite owned by SpaceX/Seattle (US) in LEO that was launched on Sat, 01 Feb 2025 UTC via an FALCON 9 launch vehicle from the Air Force Western Test Range (AFWTR). Payload-class satellites include a variety of spacecraft equipped with specific instruments for various scientific and technological missions. These include communications satellites like Starlink; space stations such as the ISS; scientific satellites like the Hubble; Earth observation satellites from companies like Planet Labs, Umbra, and HawkEye 360; GPS; miniature CubeSats for education and research; and military/defense satellites.

Loading next visibility...
Identifier
62855, 2025-022B
Orbit
LEO
Last TLE update
12 hours ago
Origin
Manufacturer
SpaceX/Seattle
Mission
Operational Commercial Communications
Bus & Motor
STARLINK V2M, Unknown motor
Mass
730 kg wet, ~700 kg dry
Launch date (UTC)
2025-02-01 (5 months ago)
Launch vehicle
FALCON 9
Launch site
Air Force Western Test Range (AFWTR)
Object type
Payload
Rocket body
Debris
Shape & HBR
Box + 2 Pan, 29 m
Radar Cross Section
33.884 m², Large (>1 m²)

Expand to show TLE details & history

TLE from 12 hours ago
0 STARLINK-32867
1 62855U 25022B   25183.78215106  .00023358  00000-0  59170-3 0  9992
2 62855  53.1569 210.7215 0001498  83.9664 276.1511 15.39642938 23630
Epoch: 2025-07-02T18:46Z
TLE epoch observation values (Epoch: 2025-07-02T18:46:17.851Z)
Latitude
-0.00007°
Longitude
8.08875°
Altitude
447.958 km
Speed
7.645 km/s
True Right ascension
14h 02m 53s
True Declination
0° 00' 00"
Sunlit
Object was in daylight at epoch
Visualization orbit readout
Latitude
30.76431°
Longitude
159.49726°
Altitude
448.334 km
Speed
7.648 km/s
Apparent Right ascension
02h 45m 29s
Apparent Declination
-4° 25' 04"
Sunlit
Object is in daylight
Visualization observer readout
Local Sidereal Time
18:02:41
Azimuth
64.65° ENE
Elevation
-33.236°
Doppler factor
1
Orbital elements
Apogee altitude
448.445 km
Perigee altitude
446.4 km
Semi-major axis
6,825.559 km
Eccentricity
0.00015
Inclination
53.1569°
RAAN
210.7215°
Arg. of periapsis
83.9664°
True anomaly
Unknown
Mean anomaly
276.1511°
Eccentric anomaly
Unknown
Mean motion
3.84889 °/min
Orbital period
93.53 mins
BSTAR
0.0005917
Loading maneuver chart data...
Loading SW <> Apogee altitude chart data...
Loading historical data...
Loading historical data...
Loading historical data...
Loading historical data...
Loading historical data...
Loading historical data...
Loading historical data...

STARLINK-32867 Visibility forecast

Observer location: undefined°, undefined°

Span
Click to sort rows by Start time (UTC) header in descending order
Start Az.
Max El. time (UTC)
Max El. Az.
Max El.
End time (UTC)
End Az.
4 mins2025-07-03 10:51:02.591Z341.534° N2025-07-03 10:52:02.591Z12.777° NNE32.302°2025-07-03 10:55:02.591Z101.549° ESE
4 mins2025-07-03 12:28:02.591Z264.888° W2025-07-03 12:30:02.591Z217.952° SW19.34°2025-07-03 12:32:02.591Z181.787° SSW
4 mins2025-07-04 03:40:02.591Z179.794° S2025-07-04 03:42:02.591Z114.086° SE27.919°2025-07-04 03:44:02.591Z72.725° E
4 mins2025-07-04 05:17:02.591Z281.883° WNW2025-07-04 05:19:02.591Z336.19° NNW25.736°2025-07-04 05:21:02.591Z22.942° NE
|